Austin, Texas, United States (73301)
Lat: 30.27N, Lon: 97.74W
Wx Zone: TXZ192
Local Info
Past Weather Observations for Today

NOTE: This archive is for the closest National Weather Service station to Austin. Information may differ from the station used for current weather conditions.

Click here for Long-term Archive

Time Weather Temperature Dewpoint Humidity Pressure Winds Precip Visibility
22:51
Clear
81°F / 27°C 72°F / 22°C 74% 29.92 in
(1013 mb)
SSE 5.8 mph
(SSE 9 kph)
- 10SM
21:51
Clear
82°F / 28°C 72°F / 22°C 70% 29.92 in
(1013 mb)
SSE 6.9 mph
(SSE 11 kph)
- 10SM
20:51
Clear
82°F / 28°C 70°F / 21°C 66% 29.92 in
(1013 mb)
Variable 4.6 mph
(Variable 7 kph)
- 10SM
19:51
Clear
84°F / 29°C 70°F / 21°C 62% 29.89 in
(1012 mb)
SSE 8.1 mph
(SSE 13 kph)
- 10SM
18:51
Clear
86°F / 30°C 72°F / 22°C 62% 29.86 in
(1011 mb)
SSE 6.9 mph
(SSE 11 kph)
- 10SM
17:51
Clear
90°F / 32°C 70°F / 21°C 52% 29.86 in
(1011 mb)
SSE 12.7 mph
(SSE 20 kph)
- 10SM
16:51
Clear
91°F / 33°C 72°F / 22°C 52% 29.86 in
(1011 mb)
SSE 8.1 mph
(SSE 13 kph)
- 10SM
15:51
Partly Cloudy
93°F / 34°C 70°F / 21°C 47% 29.86 in
(1011 mb)
SSE 12.7 mph
(SSE 20 kph)
- 10SM
14:51
Overcast
93°F / 34°C 72°F / 22°C 49% 29.89 in
(1012 mb)
SE 10.4 mph
(SE 17 kph)
- 10SM
13:51
Mostly Cloudy
95°F / 35°C 68°F / 20°C 41% 29.89 in
(1012 mb)
Variable 3.5 mph
(Variable 6 kph)
- 10SM
12:51
Clear
97°F / 36°C 68°F / 20°C 39% 29.92 in
(1013 mb)
Variable 3.5 mph
(Variable 6 kph)
- 10SM
11:51
Partly Cloudy
93°F / 34°C 70°F / 21°C 47% 29.95 in
(1014 mb)
Calm - 10SM
10:51
Partly Cloudy
88°F / 31°C 72°F / 22°C 59% 29.98 in
(1015 mb)
Calm - 10SM
09:51
Clear
84°F / 29°C 72°F / 22°C 66% 29.98 in
(1015 mb)
Calm - 10SM
09:15
Partly Cloudy
84°F / 29°C 73°F / 23°C 70% 29.98 in
(1015 mb)
Calm - 10SM
08:59
Mostly Cloudy
84°F / 29°C 73°F / 23°C 70% 29.98 in
(1015 mb)
Variable 4.6 mph
(Variable 7 kph)
- 10SM
08:51
Partly Cloudy
82°F / 28°C 72°F / 22°C 70% 29.98 in
(1015 mb)
Variable 5.8 mph
(Variable 9 kph)
- 10SM
07:51
Partly Cloudy
81°F / 27°C 72°F / 22°C 74% 29.98 in
(1015 mb)
Variable 4.6 mph
(Variable 7 kph)
- 10SM
06:51
Clear
79°F / 26°C 72°F / 22°C 79% 29.98 in
(1015 mb)
Calm - 10SM
05:51
Clear
77°F / 25°C 72°F / 22°C 83% 29.95 in
(1014 mb)
Calm - 10SM
04:51
Clear
77°F / 25°C 72°F / 22°C 83% 29.95 in
(1014 mb)
Calm - 10SM
03:51
Clear
77°F / 25°C 70°F / 21°C 79% 29.95 in
(1014 mb)
Calm - 10SM
02:51
Clear
79°F / 26°C 72°F / 22°C 79% 29.98 in
(1015 mb)
ESE 3.5 mph
(ESE 6 kph)
- 10SM
01:51
Clear
79°F / 26°C 70°F / 21°C 74% 29.98 in
(1015 mb)
Calm - 10SM
00:51
Clear
81°F / 27°C 70°F / 21°C 70% 30.01 in
(1016 mb)
SSE 6.9 mph
(SSE 11 kph)
- 10SM
Time Weather Temperature Dewpoint Humidity Pressure Winds Precip Visibility


Weather for websites

WeatherForYou.com, LLC is not responsible for any damages or problems caused by this service. Current weather conditions are obtained from the closest station including government and personal stations which may have varying degrees of accuracy. Weather forecasts are derived from the NOAA NDFD. Like all things, this site belongs to Jesus Christ... He just trusts me to maintain it. If you have any questions or comments email webmaster@weatherforyou.com

Copyright © 2014, WeatherForYou.com LLC. All rights reserved.